LiveATC.Net - Listen to live air traffic control over the Internet!
Airport/ARTCC Code
Frequency Search
(e.g., 124.400, 128.75)
Site-wide search
 


Browse Feeds
Top 50 Feeds
HF Oceanic Feeds
Coverage Map
Bad Weather Areas

LiveATC FAQ
Offer LiveATC feed
Contact LiveATC.net
Press Inquiries

LiveATC on iPhone
LiveATC on Android

LiveATC Mobile
(Mobile browser)

ATC Audio Archives
Interesting Recordings

LiveATC Forums

Home Page
About LiveATC.net


Terms of Use
Privacy Policy

AIRMETs/SIGMETs

FAA Airport Status
NAS Status
Arrival Demand


Server Software By:
Icecast.org
Liquidsoap

Select an area of interest:
U.S. Feeds: Class B Airports | Class C Airports | Class D/Other Airports | ARTCC (Centers)
International Feeds: Canada | Europe | Oceania | Asia | South America | North/Central America | Africa
Misc Feeds: HF Feeds
Search by ICAO/IATA airport code:   (e.g., kbos, kjfk, lax, eham, etc.)


Currently Available Live Feeds: 2997
Status Updated: Thu Feb 02 2023 01:38:04 UTC


NOTICE

Unauthorized use prohibited. See LiveATC.net Terms of Service

North and Central America Airport Feeds

 

MDPP App/Dep
Puerto Plata, Dominican Republic

Feed Status: DOWN
Offline since: 2022-12-03 17:43:22 UTC

MDPP 020100Z 00000KT 9999 SCT018 22/21 Q1020

Puerto Plata Approach/Departure: 119.000

MDPP Ground/Center
Puerto Plata, Dominican Republic

Feed Status: DOWN
Offline since: 2022-12-03 05:25:23 UTC

MDPP 020100Z 00000KT 9999 SCT018 22/21 Q1020

Puerto Plata Ground: 121.900
Santo Domingo Center: 124.300

MDPP Ground/Tower/Center
Puerto Plata, Dominican Republic

Feed Status: DOWN
Offline since: 2022-12-03 17:43:22 UTC

MDPP 020100Z 00000KT 9999 SCT018 22/21 Q1020

Puerto Plata Ground: 121.900
Puerto Plata Tower: 118.000
Santo Domingo Center: 124.300

MDPP Tower
Puerto Plata, Dominican Republic

Feed Status: DOWN
Offline since: 2022-12-03 17:43:22 UTC

MDPP 020100Z 00000KT 9999 SCT018 22/21 Q1020

Puerto Plata Tower: 118.000

MMAN Tower (Archives)
Monterrey, Mexico

Feed Status: UP
Listen in your browser - HTML5 player(in browser, HTML5)
Click here to listen with your own player(launches your MP3 player)

MMAN 020040Z 02005KT 4SM OVC012 06/03 A3019 RMK 8/5// BR

MMAN Flight Activity (Flightaware)

Listeners: 0 out of 1872 total

Monterrey Tower: 118.600

MMCU ATIS (Archives)
Chihuahua, Mexico

Feed Status: UP
Listen in your browser - HTML5 player(in browser, HTML5)
Click here to listen with your own player(launches your MP3 player)

MMCU 020043Z 18007KT 8SM FEW015 SCT030 BKN080 BKN200 11/07 A3005 RMK 8/572 OCNL DROPS

MMCU Flight Activity (Flightaware)

Listeners: 0 out of 1872 total

Chihuahua ATIS: 127.900

MMCU Twr/App
Chihuahua, Mexico

Feed Status: DOWN
Offline since: 2022-11-08 19:45:06 UTC

MMCU 020043Z 18007KT 8SM FEW015 SCT030 BKN080 BKN200 11/07 A3005 RMK 8/572 OCNL DROPS

Chihuahua Approach: 121.000
Chihuahua Tower: 118.400

MMGL Twr/App (Archives)
Guadalajara, Mexico

Feed Status: UP
Listen in your browser - HTML5 player(in browser, HTML5)
Click here to listen with your own player(launches your MP3 player)

MMGL 020049Z 28009KT 10SM SCT030 BKN300 23/02 A3014 RMK 8/501

MMGL Flight Activity (Flightaware)

Listeners: 9 out of 1872 total

Guadalajara Approach: 120.800
Guadalajara Tower: 118.100

MMHO App/Dep
Hermosillo, Mexico

Feed Status: DOWN
Offline since: 2023-01-05 17:57:06 UTC

MMHO 020040Z 26006KT 10SM SCT030 15/10 A3010 RMK 8/500 OCNL DROPS ISOL AC HZY

Hermosillo Approach/Departure: 121.400

MMHO Info
Hermosillo, Mexico

Feed Status: DOWN
Offline since: 2023-01-05 17:57:06 UTC

MMHO 020040Z 26006KT 10SM SCT030 15/10 A3010 RMK 8/500 OCNL DROPS ISOL AC HZY

Hermosillo Info: 122.300

MMHO Tower
Hermosillo, Mexico

Feed Status: DOWN
Offline since: 2023-01-05 17:57:06 UTC

MMHO 020040Z 26006KT 10SM SCT030 15/10 A3010 RMK 8/500 OCNL DROPS ISOL AC HZY

Hermosillo Tower: 118.700

MMHO Twr/App
Hermosillo, Mexico

Feed Status: DOWN
Offline since: 2023-01-05 17:57:06 UTC

MMHO 020040Z 26006KT 10SM SCT030 15/10 A3010 RMK 8/500 OCNL DROPS ISOL AC HZY

Hermosillo Approach/Departure: 121.400
Hermosillo Info: 122.300
Hermosillo Tower: 118.700

MMLP Twr/App (Archives)
La Paz, Mexico

Feed Status: UP
Listen in your browser - HTML5 player(in browser, HTML5)
Click here to listen with your own player(launches your MP3 player)

MMLP 020055Z 36006KT 10SM FEW020 19/11 A3007 RMK 8/100

MMLP Flight Activity (Flightaware)

Listeners: 5 out of 1872 total

La Paz Approach: 120.600
La Paz Tower: 118.100

MMMD App/Dep (Archives)
Merida, Mexico

Feed Status: UP
Listen in your browser - HTML5 player(in browser, HTML5)
Click here to listen with your own player(launches your MP3 player)

MMMD 020047Z 04005KT 7SM SCT015 26/22 A3004 RMK 8/500

MMMD Flight Activity (Flightaware)

Listeners: 3 out of 1872 total

Merida Approach: 121.200

MMMD Merida Center 125.2/128.2 (Archives)
Merida, Mexico

Feed Status: UP
Listen in your browser - HTML5 player(in browser, HTML5)
Click here to listen with your own player(launches your MP3 player)

MMMD 020047Z 04005KT 7SM SCT015 26/22 A3004 RMK 8/500

MMMD Flight Activity (Flightaware)

Listeners: 2 out of 1872 total

Merida Center: 125.200
Merida Center: 128.200

MMMD Merida Center 125.8/123.75 (Archives)
Merida, Mexico

Feed Status: UP
Listen in your browser - HTML5 player(in browser, HTML5)
Click here to listen with your own player(launches your MP3 player)

MMMD 020047Z 04005KT 7SM SCT015 26/22 A3004 RMK 8/500

MMMD Flight Activity (Flightaware)

Listeners: 3 out of 1872 total

Merida Center: 125.800
Merida Center: 123.750

MMMD Tower (Archives)
Merida, Mexico

Feed Status: UP
Listen in your browser - HTML5 player(in browser, HTML5)
Click here to listen with your own player(launches your MP3 player)

MMMD 020047Z 04005KT 7SM SCT015 26/22 A3004 RMK 8/500

MMMD Flight Activity (Flightaware)

Listeners: 7 out of 1872 total

Merida Tower: 118.300

MMMX Aeromexico Ops (Archives)
Mexico City, Mexico

Feed Status: UP
Listen in your browser - HTML5 player(in browser, HTML5)
Click here to listen with your own player(launches your MP3 player)

MMMX 020041Z 14010G22KT 10SM SKC 20/M02 A3027 NOSIG RMK HZY

MMMX Flight Activity (Flightaware)

Listeners: 0 out of 1872 total

Aeromexico Ops: 131.000

MMMX Approach (Archives)
Mexico City, Mexico

Feed Status: UP
Listen in your browser - HTML5 player(in browser, HTML5)
Click here to listen with your own player(launches your MP3 player)

MMMX 020041Z 14010G22KT 10SM SKC 20/M02 A3027 NOSIG RMK HZY

MMMX Flight Activity (Flightaware)

Listeners: 2 out of 1872 total

Mexico City Approach: 121.200

MMMX Approach (CVJ/PBC) (Archives)
Mexico City, Mexico

Feed Status: UP
Listen in your browser - HTML5 player(in browser, HTML5)
Click here to listen with your own player(launches your MP3 player)

MMMX 020041Z 14010G22KT 10SM SKC 20/M02 A3027 NOSIG RMK HZY

MMMX Flight Activity (Flightaware)

Listeners: 0 out of 1872 total

Mexico City Approach (CVJ/PBC): 119.250

MMMX Approach (Final) (Archives)
Mexico City, Mexico

Feed Status: UP
Listen in your browser - HTML5 player(in browser, HTML5)
Click here to listen with your own player(launches your MP3 player)

MMMX 020041Z 14010G22KT 10SM SKC 20/M02 A3027 NOSIG RMK HZY

MMMX Flight Activity (Flightaware)

Listeners: 0 out of 1872 total

Mexico City Approach (Final): 119.750

MMMX Arrival (North) (Archives)
Mexico City, Mexico

Feed Status: UP
Listen in your browser - HTML5 player(in browser, HTML5)
Click here to listen with your own player(launches your MP3 player)

MMMX 020041Z 14010G22KT 10SM SKC 20/M02 A3027 NOSIG RMK HZY

MMMX Flight Activity (Flightaware)

Listeners: 1 out of 1872 total

Mexico City Arrival (North): 129.650

MMMX Arrival (North/South) (Archives)
Mexico City, Mexico

Feed Status: UP
Listen in your browser - HTML5 player(in browser, HTML5)
Click here to listen with your own player(launches your MP3 player)

MMMX 020041Z 14010G22KT 10SM SKC 20/M02 A3027 NOSIG RMK HZY

MMMX Flight Activity (Flightaware)

Listeners: 0 out of 1872 total

Mexico City Arrival (North): 129.650
Mexico City Arrival (South): 119.100

MMMX Arrival (South) (Archives)
Mexico City, Mexico

Feed Status: UP
Listen in your browser - HTML5 player(in browser, HTML5)
Click here to listen with your own player(launches your MP3 player)

MMMX 020041Z 14010G22KT 10SM SKC 20/M02 A3027 NOSIG RMK HZY

MMMX Flight Activity (Flightaware)

Listeners: 0 out of 1872 total

Mexico City Arrival (South): 119.100

MMMX ATIS (Archives)
Mexico City, Mexico

Feed Status: UP
Listen in your browser - HTML5 player(in browser, HTML5)
Click here to listen with your own player(launches your MP3 player)

MMMX 020041Z 14010G22KT 10SM SKC 20/M02 A3027 NOSIG RMK HZY

MMMX Flight Activity (Flightaware)

Listeners: 0 out of 1872 total

Mexico City ATIS: 127.650

MMMX Center (Southeast) (Archives)
Mexico City, Mexico

Feed Status: UP
Listen in your browser - HTML5 player(in browser, HTML5)
Click here to listen with your own player(launches your MP3 player)

MMMX 020041Z 14010G22KT 10SM SKC 20/M02 A3027 NOSIG RMK HZY

MMMX Flight Activity (Flightaware)

Listeners: 0 out of 1872 total

Mexico Center (Southeast): 128.250

MMMX Center (West) (Archives)
Mexico City, Mexico

Feed Status: UP
Listen in your browser - HTML5 player(in browser, HTML5)
Click here to listen with your own player(launches your MP3 player)

MMMX 020041Z 14010G22KT 10SM SKC 20/M02 A3027 NOSIG RMK HZY

MMMX Flight Activity (Flightaware)

Listeners: 0 out of 1872 total

Mexico Center (West): 125.100

MMMX Clearance Delivery (Archives)
Mexico City, Mexico

Feed Status: UP
Listen in your browser - HTML5 player(in browser, HTML5)
Click here to listen with your own player(launches your MP3 player)

MMMX 020041Z 14010G22KT 10SM SKC 20/M02 A3027 NOSIG RMK HZY

MMMX Flight Activity (Flightaware)

Listeners: 0 out of 1872 total

Mexico City Clearance Delivery: 122.100

MMMX Departure (North) (Archives)
Mexico City, Mexico

Feed Status: UP
Listen in your browser - HTML5 player(in browser, HTML5)
Click here to listen with your own player(launches your MP3 player)

MMMX 020041Z 14010G22KT 10SM SKC 20/M02 A3027 NOSIG RMK HZY

MMMX Flight Activity (Flightaware)

Listeners: 0 out of 1872 total

Mexico City Departure (North): 120.500

MMMX Departure (South) (Archives)
Mexico City, Mexico

Feed Status: UP
Listen in your browser - HTML5 player(in browser, HTML5)
Click here to listen with your own player(launches your MP3 player)

MMMX 020041Z 14010G22KT 10SM SKC 20/M02 A3027 NOSIG RMK HZY

MMMX Flight Activity (Flightaware)

Listeners: 0 out of 1872 total

Mexico City Departure (South): 129.100

MMMX Ground (North) (Archives)
Mexico City, Mexico

Feed Status: UP
Listen in your browser - HTML5 player(in browser, HTML5)
Click here to listen with your own player(launches your MP3 player)

MMMX 020041Z 14010G22KT 10SM SKC 20/M02 A3027 NOSIG RMK HZY

MMMX Flight Activity (Flightaware)

Listeners: 0 out of 1872 total

Mexico City Ground (North): 121.850

MMMX Ground (North/South) (Archives)
Mexico City, Mexico

Feed Status: UP
Listen in your browser - HTML5 player(in browser, HTML5)
Click here to listen with your own player(launches your MP3 player)

MMMX 020041Z 14010G22KT 10SM SKC 20/M02 A3027 NOSIG RMK HZY

MMMX Flight Activity (Flightaware)

Listeners: 0 out of 1872 total

Mexico City Ground (North): 121.850
Mexico City Ground (South): 121.000

MMMX Ground (South) (Archives)
Mexico City, Mexico

Feed Status: UP
Listen in your browser - HTML5 player(in browser, HTML5)
Click here to listen with your own player(launches your MP3 player)

MMMX 020041Z 14010G22KT 10SM SKC 20/M02 A3027 NOSIG RMK HZY

MMMX Flight Activity (Flightaware)

Listeners: 0 out of 1872 total

Mexico City Ground (South): 121.000

MMMX Mexico Center North (Archives)
Mexico City, Mexico

Feed Status: UP
Listen in your browser - HTML5 player(in browser, HTML5)
Click here to listen with your own player(launches your MP3 player)

MMMX 020041Z 14010G22KT 10SM SKC 20/M02 A3027 NOSIG RMK HZY

MMMX Flight Activity (Flightaware)

Listeners: 0 out of 1872 total

Mexico Center North: 133.100

MMMX Tower (Archives)
Mexico City, Mexico

Feed Status: UP
Listen in your browser - HTML5 player(in browser, HTML5)
Click here to listen with your own player(launches your MP3 player)

MMMX 020041Z 14010G22KT 10SM SKC 20/M02 A3027 NOSIG RMK HZY

MMMX Flight Activity (Flightaware)

Listeners: 4 out of 1872 total

Mexico City Tower: 118.550

MMMX Tower (Helicopters) (Archives)
Mexico City, Mexico

Feed Status: UP
Listen in your browser - HTML5 player(in browser, HTML5)
Click here to listen with your own player(launches your MP3 player)

MMMX 020041Z 14010G22KT 10SM SKC 20/M02 A3027 NOSIG RMK HZY

MMMX Flight Activity (Flightaware)

Listeners: 1 out of 1872 total

Mexico City Tower (Helicopters): 118.150

MMMX Twr/App #1
Mexico City, Mexico

Feed Status: DOWN
Offline since: 2023-01-28 04:14:39 UTC

MMMX 020041Z 14010G22KT 10SM SKC 20/M02 A3027 NOSIG RMK HZY

Mexico City Approach: 121.200
Mexico City Arrival (North): 129.650
Mexico City Arrival (South): 119.100
Mexico City Final Approach: 119.750
Mexico City Tower: 118.550

MMMX UNICOM (Archives)
Mexico City, Mexico

Feed Status: UP
Listen in your browser - HTML5 player(in browser, HTML5)
Click here to listen with your own player(launches your MP3 player)

MMMX 020041Z 14010G22KT 10SM SKC 20/M02 A3027 NOSIG RMK HZY

MMMX Flight Activity (Flightaware)

Listeners: 1 out of 1872 total

Mexico City UNICOM: 122.500

MMMX Volaris Ops (Archives)
Mexico City, Mexico

Feed Status: UP
Listen in your browser - HTML5 player(in browser, HTML5)
Click here to listen with your own player(launches your MP3 player)

MMMX 020041Z 14010G22KT 10SM SKC 20/M02 A3027 NOSIG RMK HZY

MMMX Flight Activity (Flightaware)

Listeners: 0 out of 1872 total

Volaris Ops: 130.375

MMMY Tower/Approach
Monterrey, Mexico

Feed Status: DOWN
Offline since: 2023-02-02 01:00:05 UTC

MMMY 020040Z 13003KT 1SM BR -DZ VV003 06/05 A3017 RMK 60015 8////

Monterrey Approach/Departure: 119.750
Monterrey Tower: 118.100

MMPC CTAF (Archives)
Pachuca, Mexico

Feed Status: UP
Listen in your browser - HTML5 player(in browser, HTML5)
Click here to listen with your own player(launches your MP3 player)

MMPC Flight Activity (Flightaware)

Listeners: 0 out of 1872 total

Pachuca CTAF/AFIS: 122.900

MMQT Tower/App
Queretaro, Mexico

Feed Status: DOWN
Offline since: 2023-01-29 18:19:22 UTC

MMQT 020042Z 29005KT 6SM SKC 20/06 A3022 RMK HZY

Queretaro Approach: 127.200
Queretaro Tower: 118.950

MMMX Departure (North) (Archives)
Santa Lucia, Mexico

Feed Status: UP
Listen in your browser - HTML5 player(in browser, HTML5)
Click here to listen with your own player(launches your MP3 player)

MMMX 020041Z 14010G22KT 10SM SKC 20/M02 A3027 NOSIG RMK HZY

MMMX Flight Activity (Flightaware)

Listeners: 0 out of 1872 total

Mexico City Departure (North): 120.500

MMSM Approach (119.0) (Archives)
Santa Lucia, Mexico

Feed Status: UP
Listen in your browser - HTML5 player(in browser, HTML5)
Click here to listen with your own player(launches your MP3 player)

MMMX 020041Z 14010G22KT 10SM SKC 20/M02 A3027 NOSIG RMK HZY

MMMX Flight Activity (Flightaware)

Listeners: 0 out of 1872 total

Santa Lucia Approach: 119.000

MMSM Approach (128.85) (Archives)
Santa Lucia, Mexico

Feed Status: UP
Listen in your browser - HTML5 player(in browser, HTML5)
Click here to listen with your own player(launches your MP3 player)

MMMX 020041Z 14010G22KT 10SM SKC 20/M02 A3027 NOSIG RMK HZY

MMMX Flight Activity (Flightaware)

Listeners: 0 out of 1872 total

Santa Lucia Approach: 128.850

MMSM ATIS (Archives)
Santa Lucia, Mexico

Feed Status: UP
Listen in your browser - HTML5 player(in browser, HTML5)
Click here to listen with your own player(launches your MP3 player)

MMMX 020041Z 14010G22KT 10SM SKC 20/M02 A3027 NOSIG RMK HZY

MMMX Flight Activity (Flightaware)

Listeners: 0 out of 1872 total

Santa Lucia ATIS:

MMSM Clearance Delivery (Archives)
Santa Lucia, Mexico

Feed Status: UP
Listen in your browser - HTML5 player(in browser, HTML5)
Click here to listen with your own player(launches your MP3 player)

MMMX 020041Z 14010G22KT 10SM SKC 20/M02 A3027 NOSIG RMK HZY

MMMX Flight Activity (Flightaware)

Listeners: 0 out of 1872 total

Santa Lucia Clearance Delivery: 121.900

MMSM Ground (Archives)
Santa Lucia, Mexico

Feed Status: UP
Listen in your browser - HTML5 player(in browser, HTML5)
Click here to listen with your own player(launches your MP3 player)

MMMX 020041Z 14010G22KT 10SM SKC 20/M02 A3027 NOSIG RMK HZY

MMMX Flight Activity (Flightaware)

Listeners: 0 out of 1872 total

Santa Lucia Ground: 121.800

MMSM Tower (Archives)
Santa Lucia, Mexico

Feed Status: UP
Listen in your browser - HTML5 player(in browser, HTML5)
Click here to listen with your own player(launches your MP3 player)

MMMX 020041Z 14010G22KT 10SM SKC 20/M02 A3027 NOSIG RMK HZY

MMMX Flight Activity (Flightaware)

Listeners: 0 out of 1872 total

Santa Lucia Tower: 118.300

MMTC Twr/App/Center (Archives)
Torreon, Mexico

Feed Status: UP
Listen in your browser - HTML5 player(in browser, HTML5)
Click here to listen with your own player(launches your MP3 player)

MMTC 020040Z 32007KT 8SM BKN030 BKN100 22/06 A2999 RMK 8/570 HZY

MMTC Flight Activity (Flightaware)

Listeners: 0 out of 1872 total

Mazatlan Center: 124.200
Mazatlan Center: 124.400
Mazatlan Center: 128.000
Mexico Center: 123.900
Monterrey Center: 125.600
Monterrey Center: 125.425
Monterrey Center: 127.400
Torreon Approach: 119.500
Torreon Tower: 118.500

MMTJ Approach (Archives)
Tijuana, Mexico

Feed Status: UP
Listen in your browser - HTML5 player(in browser, HTML5)
Click here to listen with your own player(launches your MP3 player)

MMTJ 020040Z 31006KT 10SM SKC 10/02 A3017 RMK HZY

MMTJ Flight Activity (Flightaware)

Listeners: 1 out of 1872 total

Tijuana Approach: 120.300

MMTJ Twr/Ramp (Archives)
Tijuana, Mexico

Feed Status: UP
Listen in your browser - HTML5 player(in browser, HTML5)
Click here to listen with your own player(launches your MP3 player)

MMTJ 020040Z 31006KT 10SM SKC 10/02 A3017 RMK HZY

MMTJ Flight Activity (Flightaware)

Listeners: 1 out of 1872 total

Tijuana Ramp: 126.100
Tijuana Tower: 118.100

MUFH Havana FIR (App/Center) (Archives)
Havana, Cuba

Feed Status: UP
Listen in your browser - HTML5 player(in browser, HTML5)
Click here to listen with your own player(launches your MP3 player)

MUFH Flight Activity (Flightaware)

Listeners: 0 out of 1872 total

Hava Approach: 120.300
Havana Center: 120.250
Havana Center: 123.700
Havana Center: 124.550
Havana Center: 133.700
Havana Center: 135.100

TBPB Gnd/Twr/Radar/Center (Archives)
Bridgetown, Barbados

Feed Status: UP
Listen in your browser - HTML5 player(in browser, HTML5)
Click here to listen with your own player(launches your MP3 player)

TBPB 020100Z 08009KT 9999 FEW022 26/19 Q1016 NOSIG

TBPB Flight Activity (Flightaware)

Listeners: 0 out of 1872 total

Adams Approach/Departure: 129.350
Adams Approach/Departure: 128.850
Adams Ground: 121.900
Adams Tower: 118.700
Piarco Center: 123.700

TNCM App/Dep (Archives)
Philipsburg, Saint Martin

Feed Status: UP
Listen in your browser - HTML5 player(in browser, HTML5)
Click here to listen with your own player(launches your MP3 player)

TNCM 020100Z 04008KT 9999 FEW016 25/20 Q1019 NOSIG

TNCM Flight Activity (Flightaware)

Listeners: 0 out of 1872 total

Juliana Approach (only when busy): 128.950

TNCM Clearance Delivery (Archives)
Philipsburg, Saint Martin

Feed Status: UP
Listen in your browser - HTML5 player(in browser, HTML5)
Click here to listen with your own player(launches your MP3 player)

TNCM 020100Z 04008KT 9999 FEW016 25/20 Q1019 NOSIG

TNCM Flight Activity (Flightaware)

Listeners: 0 out of 1872 total

Juliana Clearance Delivery: 121.650

TNCM Tower (Archives)
Philipsburg, Saint Martin

Feed Status: UP
Listen in your browser - HTML5 player(in browser, HTML5)
Click here to listen with your own player(launches your MP3 player)

TNCM 020100Z 04008KT 9999 FEW016 25/20 Q1019 NOSIG

TNCM Flight Activity (Flightaware)

Listeners: 4 out of 1872 total

Juliana Tower (TNCM): 118.700

TQPF Tower (Archives)
The Valley, Anguilla

Feed Status: UP
Listen in your browser - HTML5 player(in browser, HTML5)
Click here to listen with your own player(launches your MP3 player)

TNCM 020100Z 04008KT 9999 FEW016 25/20 Q1019 NOSIG

TNCM Flight Activity (Flightaware)

Listeners: 0 out of 1872 total

Anguilla Tower: 118.500

TXKF ATIS (Archives)
Hamilton, Bermuda

Feed Status: UP
Listen in your browser - HTML5 player(in browser, HTML5)
Click here to listen with your own player(launches your MP3 player)

TXKF 020055Z 26015KT 9999 SCT013 BKN300 21/19 Q1018

TXKF Flight Activity (Flightaware)

Listeners: 0 out of 1872 total

Bermuda ATIS: 119.600

TXKF Del/Gnd (Archives)
Hamilton, Bermuda

Feed Status: UP
Listen in your browser - HTML5 player(in browser, HTML5)
Click here to listen with your own player(launches your MP3 player)

TXKF 020055Z 26015KT 9999 SCT013 BKN300 21/19 Q1018

TXKF Flight Activity (Flightaware)

Listeners: 0 out of 1872 total

Bermuda Ground/Clearance: 124.500

TXKF Del/Gnd/Twr/CTAF (Archives)
Hamilton, Bermuda

Feed Status: UP
Listen in your browser - HTML5 player(in browser, HTML5)
Click here to listen with your own player(launches your MP3 player)

TXKF 020055Z 26015KT 9999 SCT013 BKN300 21/19 Q1018

TXKF Flight Activity (Flightaware)

Listeners: 0 out of 1872 total

Bermuda CTAF: 122.800
Bermuda Ground/Clearance: 124.500
Bermuda Tower: 118.100

TXKF Tower (Archives)
Hamilton, Bermuda

Feed Status: UP
Listen in your browser - HTML5 player(in browser, HTML5)
Click here to listen with your own player(launches your MP3 player)

TXKF 020055Z 26015KT 9999 SCT013 BKN300 21/19 Q1018

TXKF Flight Activity (Flightaware)

Listeners: 0 out of 1872 total

Bermuda Tower: 118.100

ZNY Sector 81 (Bermuda)/App (Archives)
Hamilton, Bermuda

Feed Status: UP
Listen in your browser - HTML5 player(in browser, HTML5)
Click here to listen with your own player(launches your MP3 player)

TXKF 020055Z 26015KT 9999 SCT013 BKN300 21/19 Q1018

TXKF Flight Activity (Flightaware)

Listeners: 0 out of 1872 total

New York Approach: 119.100
New York Center (BDA81 Bermuda Sector): 128.500

TNCE Info (Archives)
Oranjestad, Sint Eustatius

Feed Status: UP
Listen in your browser - HTML5 player(in browser, HTML5)
Click here to listen with your own player(launches your MP3 player)

TNCE 020055Z AUTO 05011KT 010V070 //// // ///////// 25/21 Q1018 RE//

TNCE Flight Activity (Flightaware)

Listeners: 0 out of 1872 total

Statia Info: 118.100

TNCS Info
Hell's Gate, Saba

Feed Status: DOWN
Offline since: 2023-02-02 01:20:05 UTC

Saba Tower: 118.250

MHLC Gnd/Twr/Center (Archives)
La Ceiba, Honduras

Feed Status: UP
Listen in your browser - HTML5 player(in browser, HTML5)
Click here to listen with your own player(launches your MP3 player)

MHLC 020100Z 07008KT 9999 FEW020 26/22 Q1015 A2997 NOSIG

MHLC Flight Activity (Flightaware)

Listeners: 0 out of 1872 total

CENAMER: 123.900
CENAMER: 124.300
Goloson Ground: 121.900
Goloson Tower: 118.500
La Ceiba Radio: 128.900

MHLM Gnd/Twr/App (Archives)
San Pedro Sula, Honduras

Feed Status: UP
Listen in your browser - HTML5 player(in browser, HTML5)
Click here to listen with your own player(launches your MP3 player)

MHLM 020100Z 03010KT 9999 FEW028 26/22 Q1015 A2997 NOSIG

MHLM Flight Activity (Flightaware)

Listeners: 0 out of 1872 total

La Mesa Ground: 121.900
La Mesa Tower: 118.200
San Pedro Sula Approach: 119.700

MHTG ATIS (Archives)
Tegucigalpa, Honduras

Feed Status: UP
Listen in your browser - HTML5 player(in browser, HTML5)
Click here to listen with your own player(launches your MP3 player)

MHTG 020100Z 06005KT 9999 BKN038 23/13 Q1020 A2312 NOSIG

MHTG Flight Activity (Flightaware)

Listeners: 0 out of 1872 total

Toncontin ATIS: 127.750

MHTG Gnd/Twr/App/Ctr/Ops (Archives)
Tegucigalpa, Honduras

Feed Status: UP
Listen in your browser - HTML5 player(in browser, HTML5)
Click here to listen with your own player(launches your MP3 player)

MHTG 020100Z 06005KT 9999 BKN038 23/13 Q1020 A2312 NOSIG

MHTG Flight Activity (Flightaware)

Listeners: 0 out of 1872 total

American Airlines Ops: 130.700
ARINC ACARS: 131.550
Cenamer Center: 123.900
Cenamer Center: 124.300
Cenamer Center: 124.100
CMP Ops: 129.925
Continental Airlines Ops: 129.925
FAH Ground: 122.900
Palmerola (MHPR) Tower: 118.900
Taca Ops: 131.300
Taca Ops Sal: 130.300
Tecnologias Unidas: 133.000
Tegucigalpa RDO: 126.700
Toncontin Approach: 119.100
Toncontin Ground: 121.900
Toncontin Tower: 118.700

MPMG Ground (Archives)
Panama City, Panama

Feed Status: UP
Listen in your browser - HTML5 player(in browser, HTML5)
Click here to listen with your own player(launches your MP3 player)

MPMG 020100Z 35006KT 9999 FEW020 26/21 Q1011 NOSIG

MPMG Flight Activity (Flightaware)

Listeners: 0 out of 1872 total

Gelabert Ground: 121.700

MPMG Tower (Archives)
Panama City, Panama

Feed Status: UP
Listen in your browser - HTML5 player(in browser, HTML5)
Click here to listen with your own player(launches your MP3 player)

MPMG 020100Z 35006KT 9999 FEW020 26/21 Q1011 NOSIG

MPMG Flight Activity (Flightaware)

Listeners: 0 out of 1872 total

Gelabert Tower: 118.300

Panama App/Dep #2 (Archives)
Panama City, Panama

Feed Status: UP
Listen in your browser - HTML5 player(in browser, HTML5)
Click here to listen with your own player(launches your MP3 player)


MPPA Flight Activity (Flightaware)

Listeners: 1 out of 1872 total

Panama Approach: 119.700
Panama Departure: 119.200

Panama Approach #1 (Archives)
Panama City, Panama

Feed Status: UP
Listen in your browser - HTML5 player(in browser, HTML5)
Click here to listen with your own player(launches your MP3 player)

MPMG 020100Z 35006KT 9999 FEW020 26/21 Q1011 NOSIG

MPMG Flight Activity (Flightaware)

Listeners: 0 out of 1872 total

Panama Approach: 119.700

Panama Center #1
Panama City, Panama

Feed Status: DOWN
Offline since: 2021-11-29 18:41:05 UTC

MPMG 020100Z 35006KT 9999 FEW020 26/21 Q1011 NOSIG

Panama Center: 134.900
Panama Center (North): 133.300
Panama Center (North): 125.500
Panama Center (South): 123.300
Panama Center (South): 133.000

Panama Center #2 (Archives)
Panama City, Panama

Feed Status: UP
Listen in your browser - HTML5 player(in browser, HTML5)
Click here to listen with your own player(launches your MP3 player)


MPPA Flight Activity (Flightaware)

Listeners: 0 out of 1872 total

Panama Center: 134.900
Panama Center (North): 125.500
Panama Center (North): 133.300
Panama Center (South): 123.300
Panama Center (South): 133.000

Panama Radio #1
Panama City, Panama

Feed Status: DOWN
Offline since: 2021-12-17 13:13:39 UTC

MPMG 020100Z 35006KT 9999 FEW020 26/21 Q1011 NOSIG

Panama Radio: 123.600
Panama Radio: 126.900

Panama Traffic Advisory #1 (Archives)
Panama City, Panama

Feed Status: UP
Listen in your browser - HTML5 player(in browser, HTML5)
Click here to listen with your own player(launches your MP3 player)

MPMG 020100Z 35006KT 9999 FEW020 26/21 Q1011 NOSIG

MPMG Flight Activity (Flightaware)

Listeners: 0 out of 1872 total

Panama Traffic Advisory: 121.200

MPPA Ground (Archives)
Panama City, Panama

Feed Status: UP
Listen in your browser - HTML5 player(in browser, HTML5)
Click here to listen with your own player(launches your MP3 player)


MPPA Flight Activity (Flightaware)

Listeners: 0 out of 1872 total

Pacifico Ground: 121.100

MPPA Ground/Tower (Archives)
Panama City, Panama

Feed Status: UP
Listen in your browser - HTML5 player(in browser, HTML5)
Click here to listen with your own player(launches your MP3 player)


MPPA Flight Activity (Flightaware)

Listeners: 0 out of 1872 total

Pacifico Ground: 121.100
Pacifico Tower: 118.900

MPPA Tower (Archives)
Panama City, Panama

Feed Status: UP
Listen in your browser - HTML5 player(in browser, HTML5)
Click here to listen with your own player(launches your MP3 player)


MPPA Flight Activity (Flightaware)

Listeners: 0 out of 1872 total

Pacifico Tower: 118.900

Panama App/Dep #2 (Archives)
Panama City, Panama

Feed Status: UP
Listen in your browser - HTML5 player(in browser, HTML5)
Click here to listen with your own player(launches your MP3 player)


MPPA Flight Activity (Flightaware)

Listeners: 1 out of 1872 total

Panama Approach: 119.700
Panama Departure: 119.200

Panama Approach #1 (Archives)
Panama City, Panama

Feed Status: UP
Listen in your browser - HTML5 player(in browser, HTML5)
Click here to listen with your own player(launches your MP3 player)

MPMG 020100Z 35006KT 9999 FEW020 26/21 Q1011 NOSIG

MPMG Flight Activity (Flightaware)

Listeners: 0 out of 1872 total

Panama Approach: 119.700

Panama Center #1
Panama City, Panama

Feed Status: DOWN
Offline since: 2021-11-29 18:41:05 UTC

MPMG 020100Z 35006KT 9999 FEW020 26/21 Q1011 NOSIG

Panama Center: 134.900
Panama Center (North): 133.300
Panama Center (North): 125.500
Panama Center (South): 123.300
Panama Center (South): 133.000

Panama Center #2 (Archives)
Panama City, Panama

Feed Status: UP
Listen in your browser - HTML5 player(in browser, HTML5)
Click here to listen with your own player(launches your MP3 player)


MPPA Flight Activity (Flightaware)

Listeners: 0 out of 1872 total

Panama Center: 134.900
Panama Center (North): 125.500
Panama Center (North): 133.300
Panama Center (South): 123.300
Panama Center (South): 133.000

Panama Radio #1
Panama City, Panama

Feed Status: DOWN
Offline since: 2021-12-17 13:13:39 UTC

MPMG 020100Z 35006KT 9999 FEW020 26/21 Q1011 NOSIG

Panama Radio: 123.600
Panama Radio: 126.900

Panama Traffic Advisory #1 (Archives)
Panama City, Panama

Feed Status: UP
Listen in your browser - HTML5 player(in browser, HTML5)
Click here to listen with your own player(launches your MP3 player)

MPMG 020100Z 35006KT 9999 FEW020 26/21 Q1011 NOSIG

MPMG Flight Activity (Flightaware)

Listeners: 0 out of 1872 total

Panama Traffic Advisory: 121.200

Panama App/Dep #2 (Archives)
Panama City, Panama

Feed Status: UP
Listen in your browser - HTML5 player(in browser, HTML5)
Click here to listen with your own player(launches your MP3 player)


MPPA Flight Activity (Flightaware)

Listeners: 1 out of 1872 total

Panama Approach: 119.700
Panama Departure: 119.200

Panama Approach #1 (Archives)
Panama City, Panama

Feed Status: UP
Listen in your browser - HTML5 player(in browser, HTML5)
Click here to listen with your own player(launches your MP3 player)

MPMG 020100Z 35006KT 9999 FEW020 26/21 Q1011 NOSIG

MPMG Flight Activity (Flightaware)

Listeners: 0 out of 1872 total

Panama Approach: 119.700

Panama Center #1
Panama City, Panama

Feed Status: DOWN
Offline since: 2021-11-29 18:41:05 UTC

MPMG 020100Z 35006KT 9999 FEW020 26/21 Q1011 NOSIG

Panama Center: 134.900
Panama Center (North): 133.300
Panama Center (North): 125.500
Panama Center (South): 123.300
Panama Center (South): 133.000

Panama Center #2 (Archives)
Panama City, Panama

Feed Status: UP
Listen in your browser - HTML5 player(in browser, HTML5)
Click here to listen with your own player(launches your MP3 player)


MPPA Flight Activity (Flightaware)

Listeners: 0 out of 1872 total

Panama Center: 134.900
Panama Center (North): 125.500
Panama Center (North): 133.300
Panama Center (South): 123.300
Panama Center (South): 133.000

Panama Radio #1
Panama City, Panama

Feed Status: DOWN
Offline since: 2021-12-17 13:13:39 UTC

MPMG 020100Z 35006KT 9999 FEW020 26/21 Q1011 NOSIG

Panama Radio: 123.600
Panama Radio: 126.900

Panama Traffic Advisory #1 (Archives)
Panama City, Panama

Feed Status: UP
Listen in your browser - HTML5 player(in browser, HTML5)
Click here to listen with your own player(launches your MP3 player)

MPMG 020100Z 35006KT 9999 FEW020 26/21 Q1011 NOSIG

MPMG Flight Activity (Flightaware)

Listeners: 0 out of 1872 total

Panama Traffic Advisory: 121.200

CENAMER/Panama ACC (Archives)
San Jose, Costa Rica

Feed Status: UP
Listen in your browser - HTML5 player(in browser, HTML5)
Click here to listen with your own player(launches your MP3 player)

MROC 020100Z 10012KT CAVOK 22/12 A3005 NOSIG

MROC Flight Activity (Flightaware)

Listeners: 0 out of 1872 total

Central American Center (CENAMER Control): 124.100
Central American Center (CENAMER Control): 123.900
Panama Center: 133.000

MROC ATIS (Archives)
San Jose, Costa Rica

Feed Status: UP
Listen in your browser - HTML5 player(in browser, HTML5)
Click here to listen with your own player(launches your MP3 player)

MROC 020100Z 10012KT CAVOK 22/12 A3005 NOSIG

MROC Flight Activity (Flightaware)

Listeners: 0 out of 1872 total

Coco ATIS: 127.675

MROC Del/Gnd/Twr/App/Center/Misc (Archives)
San Jose, Costa Rica

Feed Status: UP
Listen in your browser - HTML5 player(in browser, HTML5)
Click here to listen with your own player(launches your MP3 player)

MROC 020100Z 10012KT CAVOK 22/12 A3005 NOSIG

MROC Flight Activity (Flightaware)

Listeners: 8 out of 1872 total

Coco Center (Control over CR Airspace): 119.600
Coco Clearance Delivery: 121.300
Coco Ground: 121.900
Coco Terminal Control: 120.500
Coco Tower: 118.600
Coco UNICOM: 126.800

MROC Gnd/Twr/App/Center (Archives)
San Jose, Costa Rica

Feed Status: UP
Listen in your browser - HTML5 player(in browser, HTML5)
Click here to listen with your own player(launches your MP3 player)

MROC 020100Z 10012KT CAVOK 22/12 A3005 NOSIG

MROC Flight Activity (Flightaware)

Listeners: 2 out of 1872 total

Central American Center (CENAMER Control): 124.100
Coco Center (Control over CR Airspace): 119.600
Coco Ground: 121.900
Coco Terminal Control: 120.500
Coco Tower: 118.600

MRPV Ground/Tower (Archives)
San Jose, Costa Rica

Feed Status: UP
Listen in your browser - HTML5 player(in browser, HTML5)
Click here to listen with your own player(launches your MP3 player)


MRPV Flight Activity (Flightaware)

Listeners: 0 out of 1872 total

Pavas Ground: 121.700
Pavas Tower: 118.300

MSLP Gnd/Twr/App
San Salvador, El Salvador

Feed Status: DOWN
Offline since: 2022-07-24 00:46:06 UTC

MSLP 020050Z VRB01KT 9999 FEW037TCU FEW060 25/21 Q1011 A2986 NOSIG RMK TCU NE

Comalapa Ground: 121.700
Comalapa Tower: 118.000
Compalapa Approach: 119.900

MSLP Gnd/Twr/App/Center (Archives)
San Salvador, El Salvador

Feed Status: UP
Listen in your browser - HTML5 player(in browser, HTML5)
Click here to listen with your own player(launches your MP3 player)

MSLP 020050Z VRB01KT 9999 FEW037TCU FEW060 25/21 Q1011 A2986 NOSIG RMK TCU NE

MSLP Flight Activity (Flightaware)

Listeners: 0 out of 1872 total

Avianca Ops: 123.500
CCA: 119.300
CENAMER: 124.100
Comalapa Authorizations: 121.250
Comalapa Departure: 123.900
Comalapa Ground: 121.700
Comalapa Tower: 118.000
Compalapa Approach: 119.900
Ilopango Tower: 118.300
TACA Ops: 130.500

MSSS Gnd/Twr/App (Archives)
San Salvador, El Salvador

Feed Status: UP
Listen in your browser - HTML5 player(in browser, HTML5)
Click here to listen with your own player(launches your MP3 player)


MSSS Flight Activity (Flightaware)

Listeners: 0 out of 1872 total

CENAMER (airborne only0: 124.100
CENAMER (airborne only0: 133.500
El Salvador Control: 129.200
El Salvador Tower: 118.000
Ilopango Approach: 129.225
Ilopango Ground: 121.900
Ilopango Radio: 127.050
Ilopango Tower: 118.300